[[{"header":{"parameterUnit":"m.s-1","parameterCategory":1,"la1":30.2991,"la2":30.254,"lo1":-89.0895,"lo2":-89.0444,"dy":0.0017,"dx":0.0017,"nx":28,"ny":28,"refTime":"2024-07-17T09:00:00:Z","depth":0,"parameterNumber":2,"parameterNumberName":"U-component_of_WINDS"},"data":[0,0,0,0,0,0,0,0,0,0,0,0,0,0,0,0,0,0,0,0,0,0,0,0,0,0,0,0,0,0,0,0,0,0,0,0,0,0,0,0,0,0,0,0,0,0,0,0,0,0,0,0,0,0,0,0,0,0,3.6802,3.6803,0,3.6904,3.6906,3.6907,3.6865,3.6862,3.686,3.6857,3.696,3.6965,3.697,0,0,0,0,0,0,0,0,0,0,0,0,0,3.6564,3.6569,3.6801,3.6803,3.6804,3.6904,3.6906,3.6907,3.6865,3.6862,3.6859,3.6856,3.6958,3.6964,3.697,0,0,0,0,0,0,0,0,0,0,0,0,0,3.6667,3.657,3.6801,3.6795,3.6796,3.6904,3.6906,3.6907,3.6866,3.6862,3.6858,3.6855,3.6957,3.6964,3.6971,3.7091,0,0,3.6994,3.6997,0,0,0,0,0,0,0,0,3.6661,3.6676,3.6795,3.6796,3.6796,3.6868,3.686,3.6969,3.6866,3.6839,3.6857,3.6853,3.6932,3.6942,3.6969,3.7096,3.71,3.6995,3.6999,3.7003,3.7005,0,0,0,0,0,0,0,3.6654,3.6671,3.6842,3.6796,3.6798,3.6786,3.6796,3.688,3.6905,3.6841,3.6838,3.6851,3.6932,3.6962,3.6971,3.7101,3.6995,3.7001,3.7006,3.7009,3.7327,3.7331,0,0,0,0,0,0,3.6647,3.6666,3.6839,3.6845,3.6719,3.6793,3.6805,3.6849,3.6904,3.6909,3.6854,3.6849,3.6951,3.6962,3.6974,3.7114,3.7003,3.701,3.7014,3.7323,3.7328,3.7332,0,0,0,0,0,0,3.6643,3.6663,3.6835,3.6755,3.6776,3.6801,3.685,3.6853,3.6882,3.6914,3.6917,3.688,3.6948,3.6964,3.7061,3.7117,3.7013,3.702,3.7319,3.7325,3.733,3.7398,0,0,0,0,0,0,3.6636,3.6662,3.6709,3.6756,3.678,3.6921,3.6854,3.6857,3.6896,3.6889,3.6939,3.6944,3.6946,3.705,3.7069,3.7126,3.7026,3.7314,3.7321,3.7328,3.7391,3.7405,3.7418,0,0,0,0,0,3.6628,3.6724,3.6711,3.6732,3.6839,3.6925,3.6938,3.694,3.69,3.6946,3.6966,3.6942,3.7109,3.7061,3.7081,3.7141,3.731,3.7319,3.7328,3.7384,3.7402,3.7418,0,0,0,0,0,0,3.6682,3.673,3.6716,3.6831,3.6874,3.6917,3.6976,3.696,3.7014,3.7006,3.7006,3.7017,3.7117,3.714,3.7085,3.7258,3.7203,3.7217,3.7239,3.7257,3.727,3.7261,3.7032,0,0,0,0,0,3.6707,3.6774,3.6812,3.691,3.6932,3.695,3.6988,3.6986,3.703,3.7047,3.7074,3.7117,3.7179,3.722,3.7278,3.7395,3.7403,3.7446,3.7459,3.7471,3.7481,3.754,3.7559,3.7362,3.7361,3.7361,0,0,3.676,3.6795,3.6837,3.6921,3.6954,3.7021,3.6966,3.704,3.7089,3.7058,3.7151,3.7173,3.722,3.7327,3.7375,3.7348,3.7538,3.7482,3.749,3.7495,3.7551,3.757,3.7586,3.7368,3.7366,3.7366,0,0,3.689,3.6925,3.7008,3.7042,3.7092,3.7104,3.7124,3.717,3.7182,3.7276,3.7254,3.7311,3.7419,3.7452,3.7484,3.7625,3.7603,3.7644,3.7714,3.7772,3.7787,3.7801,3.7847,3.7864,3.7655,3.7655,3.7656,0,3.6949,3.705,3.7052,3.7127,3.7164,3.714,3.7222,3.7255,3.7322,3.7347,3.7317,3.7449,3.748,3.7592,3.7626,3.7653,3.7674,3.7637,3.7785,3.7799,3.7811,3.7856,3.7874,3.766,3.7659,3.7659,3.7658,0,3.7118,3.7188,3.7249,3.7314,3.7358,3.7437,3.7449,3.7492,3.7486,3.75,3.7594,3.763,3.7694,3.7721,3.7717,3.7832,3.7813,3.7785,3.7729,3.7835,3.7876,3.7893,3.7666,3.7664,3.7663,3.7662,0,0,3.7284,3.7348,3.737,3.7398,3.7452,3.7505,3.7582,3.7645,3.768,3.7728,3.779,3.788,3.7853,3.7889,3.7887,3.7939,3.8043,3.7903,3.7904,3.7924,3.8168,3.8186,3.8206,3.803,3.8034,3.8036,3.8162,0,3.7415,3.7549,3.7553,3.7675,3.7738,3.7716,3.7782,3.7821,3.7836,3.789,3.7907,3.7969,3.7931,3.7951,3.8001,3.802,3.8091,3.8011,3.8085,3.8087,3.807,3.8228,3.8249,3.8366,3.8179,3.8182,3.8184,0,3.7585,3.7637,3.7766,3.7807,3.7834,3.7894,3.795,3.8003,3.8046,3.8053,3.8092,3.8083,3.8158,3.8103,3.8205,3.815,3.8181,3.8194,3.8199,3.8203,3.8139,3.8233,3.8404,3.842,3.821,3.8208,3.8206,0,3.7688,3.7791,3.788,3.7905,3.7957,3.7998,3.8022,3.8061,3.8098,3.8147,3.817,3.8228,3.8259,3.8303,3.8308,3.8268,3.841,3.8355,3.8415,3.8414,3.8443,3.844,3.8617,3.8469,3.8469,3.8469,3.8468,0,3.7832,3.791,3.7926,3.7981,3.8067,3.807,3.8155,3.8175,3.821,3.8266,3.8251,3.8304,3.831,3.8364,3.8369,3.845,3.8466,3.8471,3.8471,3.847,3.8469,3.8488,3.8478,3.8473,3.8472,3.8471,3.8471,0,3.796,3.7975,3.8069,3.8111,3.8123,3.8184,3.8219,3.827,3.8283,3.8355,3.8371,3.8392,3.8455,3.8465,3.8539,3.8542,3.8639,3.8632,3.8624,3.8622,3.8679,3.8672,3.8871,3.8896,3.8735,3.8737,3.8738,0,3.8049,3.8109,3.8156,3.8193,3.8218,3.8279,3.8315,3.832,3.8359,3.8411,3.8455,3.8516,3.8565,3.8666,3.8686,3.8742,3.8734,3.88,3.8742,3.8739,3.873,3.8725,3.8729,3.881,3.8812,3.8813,3.8814,0,3.8204,3.8208,3.8262,3.8319,3.8363,3.8408,3.845,3.8481,3.8491,3.8535,3.8598,3.8636,3.8711,3.8771,3.8826,3.8848,3.8832,3.8833,3.8849,3.8847,3.8838,3.884,3.865,3.8827,3.8826,3.8825,3.8824,3.8824,3.8313,3.8363,3.8404,3.8464,3.8496,3.8535,3.8584,3.8604,3.8657,3.8718,3.8718,3.8787,3.8826,3.8898,3.8924,3.8976,3.8955,3.8979,3.8984,3.8989,3.8993,3.8833,3.8987,3.8987,3.8986,3.8986,3.8986,0,3.8463,3.8488,3.8544,3.8602,3.8649,3.8632,3.8677,3.8716,3.8778,3.8816,3.8864,3.8935,3.8993,3.9018,3.9073,3.911,3.9104,3.9125,3.912,3.9124,3.9011,3.899,3.9128,3.9128,3.9128,3.9128,3.9128,3.9128,3.8547,3.863,3.8638,3.8737,3.8761,3.8828,3.8855,3.889,3.892,3.9001,3.9048,3.9065,3.9096,3.9154,3.9205,3.9211,3.923,3.9253,3.9255,3.9148,3.9133,3.9119,3.9099,3.9258,3.9259,3.9364,3.9365,3.9365]},{"header":{"parameterUnit":"m.s-1","parameterCategory":1,"la1":30.2991,"la2":30.254,"lo1":-89.0895,"lo2":-89.0444,"dy":0.0017,"dx":0.0017,"nx":28,"ny":28,"refTime":"2024-07-17T09:00:00:Z","depth":0,"parameterNumber":3,"parameterNumberName":"V-component_of_WINDS"},"data":[0,0,0,0,0,0,0,0,0,0,0,0,0,0,0,0,0,0,0,0,0,0,0,0,0,0,0,0,0,0,0,0,0,0,0,0,0,0,0,0,0,0,0,0,0,0,0,0,0,0,0,0,0,0,0,0,0,0,1.4254,1.4255,0,1.4401,1.4402,1.4404,1.4446,1.4445,1.4444,1.4443,1.4595,1.46,1.4605,0,0,0,0,0,0,0,0,0,0,0,0,0,1.401,1.4014,1.4254,1.4256,1.4257,1.44,1.4402,1.4404,1.4446,1.4445,1.4444,1.4443,1.4594,1.4599,1.4605,0,0,0,0,0,0,0,0,0,0,0,0,0,1.4132,1.4015,1.4253,1.4295,1.4301,1.44,1.4402,1.4405,1.4446,1.4445,1.4444,1.4443,1.4592,1.4599,1.4606,1.4675,0,0,1.4628,1.4631,0,0,0,0,0,0,0,0,1.4125,1.4141,1.4287,1.4293,1.4299,1.4404,1.4372,1.4495,1.4447,1.4391,1.4443,1.4442,1.4533,1.4545,1.4575,1.4682,1.4688,1.4629,1.4633,1.4636,1.4638,0,0,0,0,0,0,0,1.4116,1.4135,1.4312,1.4289,1.4296,1.4307,1.4323,1.4396,1.4467,1.4396,1.4399,1.4416,1.4535,1.4568,1.4579,1.469,1.4628,1.4635,1.4639,1.4642,1.4859,1.486,0,0,0,0,0,0,1.4101,1.4127,1.4307,1.4316,1.4207,1.4312,1.433,1.4371,1.4466,1.4479,1.4417,1.4417,1.4556,1.457,1.4584,1.467,1.4636,1.4643,1.4647,1.4858,1.4859,1.4861,0,0,0,0,0,0,1.4095,1.4116,1.4301,1.4223,1.4247,1.4318,1.4363,1.4375,1.4407,1.4482,1.4495,1.4437,1.4556,1.4574,1.4651,1.4676,1.4646,1.4653,1.4856,1.4858,1.486,1.4842,0,0,0,0,0,0,1.4088,1.4114,1.4141,1.4223,1.4251,1.4366,1.4365,1.4378,1.4419,1.4421,1.4504,1.4517,1.4556,1.464,1.4658,1.4685,1.4658,1.4854,1.4857,1.4859,1.4841,1.4843,1.4845,0,0,0,0,0,1.4079,1.4131,1.4142,1.4164,1.4286,1.4367,1.4383,1.4427,1.4421,1.4449,1.4496,1.4514,1.467,1.4648,1.4669,1.4698,1.4853,1.4856,1.4859,1.484,1.4843,1.4845,0,0,0,0,0,0,1.4051,1.4142,1.4156,1.4236,1.4293,1.4374,1.4411,1.4429,1.4491,1.449,1.4542,1.4561,1.4634,1.4674,1.4647,1.4768,1.4762,1.4769,1.474,1.4743,1.4746,1.4735,1.4664,0,0,0,0,0,1.4054,1.4112,1.4189,1.4251,1.4279,1.434,1.4377,1.4405,1.4467,1.4492,1.4546,1.4605,1.4667,1.4708,1.4769,1.4846,1.4865,1.4877,1.4879,1.488,1.4886,1.4929,1.4935,1.4872,1.4872,1.4872,0,0,1.4061,1.4118,1.4152,1.4247,1.4295,1.4354,1.436,1.4422,1.4466,1.4502,1.4578,1.4618,1.4688,1.4765,1.4802,1.4801,1.4908,1.4885,1.4885,1.4891,1.4933,1.4939,1.4944,1.4874,1.4873,1.4873,0,0,1.4103,1.4153,1.421,1.4257,1.4329,1.4368,1.4382,1.446,1.4488,1.4564,1.4592,1.4645,1.4751,1.4799,1.4838,1.4896,1.4914,1.4914,1.4927,1.4968,1.4972,1.4977,1.4997,1.5004,1.492,1.492,1.492,0,1.4103,1.4192,1.4237,1.4297,1.4338,1.4371,1.4429,1.4473,1.4562,1.4589,1.4586,1.4719,1.4769,1.4857,1.487,1.4901,1.4917,1.4906,1.4968,1.4973,1.4978,1.4998,1.5005,1.4919,1.492,1.492,1.492,0,1.4188,1.4249,1.4287,1.437,1.4415,1.4474,1.4527,1.4567,1.4591,1.463,1.4707,1.4767,1.4841,1.4864,1.4889,1.4955,1.4952,1.4958,1.4952,1.4983,1.5002,1.501,1.4919,1.4919,1.4919,1.4919,0,0,1.4219,1.4324,1.4337,1.4374,1.4455,1.4503,1.4563,1.4634,1.4667,1.4726,1.4777,1.4865,1.4871,1.4914,1.4945,1.498,1.5021,1.4982,1.4984,1.4987,1.5097,1.5091,1.5099,1.5033,1.5035,1.5036,1.509,0,1.4271,1.4379,1.4419,1.4507,1.4563,1.4595,1.4647,1.4701,1.4739,1.4793,1.4835,1.4896,1.4899,1.4925,1.4962,1.5008,1.5044,1.5005,1.5081,1.5083,1.5062,1.511,1.5105,1.5154,1.5098,1.51,1.5101,0,1.4347,1.4406,1.4499,1.4571,1.4596,1.4642,1.4709,1.476,1.4822,1.4847,1.4894,1.4922,1.4985,1.4974,1.5061,1.5034,1.5067,1.5094,1.5097,1.5106,1.5094,1.512,1.517,1.5177,1.5113,1.5112,1.5111,0,1.4359,1.4461,1.453,1.4561,1.4647,1.4678,1.4715,1.4777,1.4816,1.4875,1.4901,1.4966,1.5002,1.5052,1.5096,1.5085,1.5179,1.5173,1.5201,1.52,1.522,1.5218,1.5276,1.5241,1.5241,1.5241,1.5241,0,1.4414,1.4469,1.4536,1.4578,1.4641,1.4687,1.4748,1.4787,1.4841,1.4891,1.4922,1.4968,1.5023,1.5077,1.5112,1.5178,1.5194,1.5216,1.5224,1.5213,1.521,1.5236,1.5233,1.5243,1.5243,1.5242,1.5242,0,1.4438,1.4485,1.4562,1.4636,1.4656,1.4699,1.4762,1.4804,1.4842,1.4905,1.4923,1.4983,1.5047,1.5096,1.5179,1.5202,1.5272,1.5282,1.5251,1.5256,1.5281,1.5278,1.5358,1.537,1.5327,1.5327,1.5327,0,1.447,1.4513,1.4591,1.4626,1.4663,1.472,1.4759,1.4805,1.4846,1.4919,1.4951,1.5017,1.5073,1.5173,1.5225,1.5288,1.5299,1.5323,1.5309,1.5296,1.5299,1.5296,1.53,1.5325,1.5325,1.5325,1.5325,0,1.452,1.4541,1.4597,1.4661,1.4707,1.4759,1.4813,1.484,1.4895,1.4939,1.5004,1.5047,1.5131,1.5196,1.5264,1.5303,1.5323,1.5329,1.5339,1.5328,1.5308,1.5318,1.5256,1.5327,1.5327,1.5327,1.5327,1.5327,1.4549,1.4588,1.4649,1.471,1.4754,1.4802,1.4845,1.4888,1.4943,1.5014,1.5038,1.5105,1.5165,1.5259,1.5297,1.535,1.5351,1.5365,1.5369,1.5372,1.537,1.5299,1.5363,1.5363,1.5363,1.5363,1.5363,0,1.4601,1.4641,1.4696,1.4769,1.4816,1.483,1.4889,1.4928,1.4986,1.504,1.5093,1.5167,1.523,1.5285,1.535,1.5382,1.5393,1.5397,1.5395,1.5404,1.5367,1.5351,1.5387,1.5387,1.5387,1.5387,1.5387,1.5387,1.4633,1.47,1.4727,1.4816,1.4856,1.4921,1.4953,1.4998,1.5041,1.5122,1.5173,1.5209,1.5263,1.5331,1.5389,1.5404,1.5426,1.5428,1.5445,1.5409,1.5406,1.5404,1.5389,1.5433,1.5433,1.5478,1.5478,1.5478]}]]